This is the latest recevied weather packets stored in our database for station/object N3TTT-13. If no packets are shown the sender has not sent any weather packets the latest 10 day(s).
| Time | Temp. | Humidity | Pressure | Rain* | Wind** | Luminosity | Snow |
|---|---|---|---|---|---|---|---|
| 1777489243 | 14.44° C | 74% | 1012.6 hPa | 0 mm | - | 112 W/m² | - |
| 1777488940 | 14.44° C | 74% | 1012.5 hPa | 0 mm | - | 106 W/m² | - |
| 1777488637 | 15° C | 73% | 1012.4 hPa | 0 mm | - | 113 W/m² | - |
| 1777488334 | 15° C | 73% | 1012.6 hPa | 0 mm | - | 140 W/m² | - |
| 1777488033 | 15° C | 72% | 1012.7 hPa | 0 mm | - | 161 W/m² | - |
| 1777487730 | 15° C | 72% | 1012.9 hPa | 0 mm | - | 177 W/m² | - |
| 1777487427 | 15° C | 72% | 1012.9 hPa | 0 mm | - | 226 W/m² | - |
| 1777487125 | 15° C | 73% | 1013 hPa | 0 mm | - | 247 W/m² | - |
| 1777486820 | 15° C | 72% | 1013.2 hPa | 0 mm | - | 263 W/m² | - |
| 1777486518 | 15° C | 72% | 1013 hPa | 0 mm | - | 154 W/m² | - |
| 1777486215 | 14.44° C | 73% | 1013.2 hPa | 0 mm | - | 113 W/m² | - |
| 1777485913 | 15° C | 72% | 1013.1 hPa | 0 mm | - | 68 W/m² | - |
| 1777485609 | 15° C | 72% | 1013.3 hPa | 0 mm | - | 76 W/m² | - |
| 1777485304 | 15° C | 71% | 1013.5 hPa | 0 mm | - | 85 W/m² | - |
| 1777485001 | 15.56° C | 72% | 1013.4 hPa | 0 mm | - | 129 W/m² | - |
| 1777484698 | 15.56° C | 73% | 1013.4 hPa | 0 mm | - | 143 W/m² | - |
| 1777484394 | 15.56° C | 72% | 1013.5 hPa | 0 mm | - | 146 W/m² | - |
| 1777484090 | 15.56° C | 72% | 1013.8 hPa | 0 mm | - | 139 W/m² | - |
| 1777483787 | 15.56° C | 73% | 1013.5 hPa | 0 mm | - | 116 W/m² | - |
| 1777483484 | 15.56° C | 72% | 1013.7 hPa | 0 mm | - | 121 W/m² | - |
| 1777483179 | 15.56° C | 73% | 1013.5 hPa | 0 mm | - | 146 W/m² | - |
| 1777482875 | 16.11° C | 71% | 1013.8 hPa | 0 mm | - | 194 W/m² | - |
| 1777482571 | 16.11° C | 71% | 1013.5 hPa | 0 mm | - | 253 W/m² | - |
| 1777482269 | 17.22° C | 69% | 1013.8 hPa | 0 mm | - | 269 W/m² | - |
| 1777481966 | 17.22° C | 69% | 1013.8 hPa | 0 mm | - | 277 W/m² | - |
* Rain latest hour (hover to see other rain measurements)
** Current wind speed in m/s (hover to see current wind gust speed)